• Join FlightAware (Why Join?)
  • Login
  • US Flag 
09:22PM EST


 

Airport Tracker/Info


-or-


 

Live Flight TrackerFlight Track Log ✈ UPS555 ✈ 23-Apr-2013 ✈ KMSP - KRFD

Flight Track Log - Related Links

Times and Time Zones

All times are in EDT time to prevent confusion due to time zone crossing. See the UPS555 flight status page for this flight to view local times or setup timezone preferences in your user account.

Time Position Orientation Groundspeed Altitude Reporting Facility
EDT Latitude Longitude Course Direction KTS MPH feet Rate Location/Type
11:13PM 44.8780 -93.2110 325° Northwest 132 152 700  Level FlightAware
11:13PM 44.8860 -93.2340 296° West 140 161 2,200 2,640 Climbing FlightAware
11:13PM 44.8880 -93.2500 280° West 166 191 2,700 1,980 Climbing FlightAware
11:14PM 44.8830 -93.3070 263° West 215 247 4,200 2,400 Climbing FlightAware
11:14PM 44.8800 -93.3310 260° West 216 249 5,100 2,700 Climbing FlightAware
11:15PM 44.8750 -93.3600 256° West 236 272 6,000 1,560 Climbing FlightAware
11:15PM 44.8520 -93.3900 223° Southwest 241 277 6,400 2,640 Climbing FlightAware
11:15PM 44.8260 -93.3610 142° Southeast 277 319 8,000 2,400 Climbing FlightAware
11:16PM 44.8030 -93.3350 141° Southeast 277 319 8,000  Level FlightAware
11:16PM 44.7770 -93.3070 143° Southeast 277 319 8,000  Level FlightAware
11:17PM 44.7600 -93.2880 142° Southeast 277 319 8,000  Level FlightAware
11:17PM 44.7340 -93.2600 143° Southeast 277 319 8,000 5,220 Level FlightAware
11:18PM 44.6744 -93.1872 143° Southeast 369 425 12,800 7,260 Climbing FAA TRACON SMA TRACON (SMA)
11:18PM 44.6497 -93.1592 141° Southeast 371 427 13,600 2,460 Climbing FAA TRACON SMA TRACON (SMA)
11:18PM 44.6244 -93.1319 143° Southeast 374 430 14,400 2,640 Climbing FAA TRACON SMA TRACON (SMA)
11:19PM 44.5919 -93.0975 143° Southeast 379 436 15,300 2,520 Climbing FAA TRACON SMA TRACON (SMA)
11:19PM 44.5656 -93.0692 143° Southeast 384 442 16,100 2,400 Climbing FAA TRACON SMA TRACON (SMA)
11:19PM 44.5394 -93.0403 142° Southeast 388 447 16,900 2,460 Climbing FAA TRACON SMA TRACON (SMA)
11:20PM 44.5069 -93.0033 141° Southeast 392 451 17,700 2,220 Climbing FAA TRACON SMA TRACON (SMA)
11:20PM 44.4814 -92.9722 139° Southeast 393 452 18,400 2,040 Climbing FAA TRACON SMA TRACON (SMA)
11:20PM 44.4553 -92.9414 140° Southeast 397 457 19,100 2,220 Climbing FAA TRACON SMA TRACON (SMA)
11:21PM 44.4225 -92.9019 139° Southeast 404 465 19,900 2,100 Climbing FAA TRACON SMA TRACON (SMA)
11:21PM 44.3950 -92.8722 142° Southeast 406 467 20,500 1,860 Climbing FAA TRACON SMA TRACON (SMA)
11:21PM 44.3683 -92.8400 139° Southeast 411 473 21,200 1,140 Climbing FAA TRACON SMA TRACON (SMA)
11:27PM 43.8800 -92.2800 139° Southeast 442 509 27,000 960 Climbing FlightAware
11:27PM 43.8280 -92.1860 127° Southeast 447 514 27,000  Level FlightAware
11:28PM 43.7720 -92.0820 127° Southeast 442 509 27,000  Level FlightAware
11:29PM 43.7230 -91.9900 126° Southeast 443 510 27,000  Level FlightAware
11:29PM 43.6690 -91.8920 127° Southeast 445 512 27,000  Level FlightAware
11:30PM 43.6210 -91.8030 127° Southeast 444 511 27,000  Level FlightAware
11:31PM 43.5680 -91.7060 127° Southeast 443 510 27,000  Level FlightAware
11:32PM 43.5120 -91.6030 127° Southeast 443 510 27,000  Level FlightAware
11:32PM 43.4640 -91.5150 127° Southeast 444 511 27,000  Level FlightAware
11:33PM 43.4160 -91.4270 127° Southeast 445 512 27,000  Level FlightAware
11:34PM 43.3600 -91.3250 127° Southeast 446 513 27,000  Level FlightAware
11:34PM 43.3070 -91.2310 128° Southeast 448 516 27,000  Level FlightAware
11:35PM 43.2570 -91.1410 127° Southeast 448 516 27,000  Level FlightAware
11:36PM 43.2030 -91.0440 127° Southeast 448 516 27,000  Level FlightAware
11:36PM 43.1500 -90.9480 127° Southeast 448 516 27,000 -120 Level FlightAware
11:37PM 43.0940 -90.8470 127° Southeast 441 507 26,900 -1,500 Descending FlightAware
11:38PM 43.0460 -90.7610 127° Southeast 457 526 24,900 -2,220 Descending FlightAware
11:38PM 42.9920 -90.6650 128° Southeast 441 507 24,000 -2,160 Descending FlightAware
11:39PM 42.9360 -90.5650 127° Southeast 443 510 21,900 -2,520 Descending FlightAware
11:40PM 42.8860 -90.4760 127° Southeast 428 493 20,500 -2,280 Descending FlightAware
11:41PM 42.8330 -90.3830 128° Southeast 421 484 18,700 -2,400 Descending FlightAware
11:41PM 42.7850 -90.2990 128° Southeast 416 479 17,100 -2,280 Descending FlightAware
11:42PM 42.7390 -90.2190 128° Southeast 405 466 15,700 -2,520 Descending FlightAware
11:43PM 42.6860 -90.1250 127° Southeast 409 471 13,600 -2,280 Descending FlightAware
11:43PM 42.6420 -90.0490 128° Southeast 391 450 12,500 -1,860 Descending FlightAware
11:44PM 42.5910 -89.9610 128° Southeast 381 438 11,000 -1,440 Descending FlightAware
11:45PM 42.5490 -89.8880 128° Southeast 349 402 10,500 -720 Descending FlightAware
11:45PM 42.5120 -89.8230 128° Southeast 321 369 10,100 -600 Descending FlightAware
11:46PM 42.4850 -89.7770 129° Southeast 304 350 9,800 -900 Descending FlightAware
11:46PM 42.4650 -89.7420 128° Southeast 298 343 9,300 -1,140 Descending FlightAware
11:47PM 42.4370 -89.6950 129° Southeast 290 334 8,800 -1,140 Descending FlightAware
11:47PM 42.4140 -89.6550 128° Southeast 285 328 8,200 -1,200 Descending FlightAware
11:48PM 42.3900 -89.6130 128° Southeast 283 326 7,600 -1,320 Descending FlightAware
11:48PM 42.3650 -89.5710 129° Southeast 280 322 6,900 -1,320 Descending FlightAware
11:49PM 42.3440 -89.5350 128° Southeast 278 320 6,400 -1,320 Descending FlightAware
11:49PM 42.3200 -89.4940 128° Southeast 277 319 5,700 -1,200 Descending FlightAware
11:50PM 42.2990 -89.4600 130° Southeast 271 312 5,300 -1,020 Descending FlightAware
11:50PM 42.2760 -89.4210 129° Southeast 264 304 4,800 -1,080 Descending FlightAware
11:50PM 42.2650 -89.4030 130° Southeast 263 303 4,500 -1,380 Descending FlightAware
11:51PM 42.2470 -89.3730 129° Southeast 266 306 3,900 -1,560 Descending FlightAware
11:51PM 42.2220 -89.3290 127° Southeast 269 310 3,100 -1,320 Descending FlightAware
11:52PM 42.2040 -89.2990 129° Southeast 265 305 2,700 -900 Descending FlightAware
11:52PM 42.1820 -89.2610 128° Southeast 241 277 2,300 -420 Descending FlightAware
11:53PM 42.1640 -89.2290 127° Southeast 198 228 2,300 -180 Level FlightAware
11:53PM 42.1600 -89.2130 109° East 154 177 2,200 -240 Descending FlightAware
11:53PM 42.1620 -89.2050 71° East 135 155 2,200 -480 Level FlightAware
11:53PM 42.1650 -89.1930 71° East 121 139 2,000 -840 Descending FlightAware
11:54PM 42.1720 -89.1740 64° Northeast 117 135 1,600 -660 Descending FlightAware
11:54PM 42.1780 -89.1570 65° Northeast 119 137 1,400 -600 Descending FlightAware
11:55PM 42.1850 -89.1370 65° Northeast 119 137 1,100 -720 Descending FlightAware
11:55PM 42.1900 -89.1220 66° East 122 140 800 -420 Descending FlightAware
11:56PM 42.1950 -89.1070 66° East 122 140 800  Level FlightAware
12:00AM 42.1954 -89.0972 71° East  Level Estimated
12:01AM 42.1954 -89.0972 71° East  Level Estimated
12:02AM 42.1954 -89.0972 71° East  Level Estimated